Wind_Speed
43 42 41 39 38 36 34 33 33 32 32 31 30 29 28 28 27 27 26 26 26 27 27 27 28 28 28 28 29 29 29 29 30 30 30 30 30 31 31 31 31 31 31
45 44 43 42 40 39 37 35 34 34 33 33 32 31 30 30 29 29 29 28 29 29 29 29 29 29 30 30 30 31 31 31 31 32 32 32 33 33 33 33 32 32 32
48 46 45 44 43 41 40 38 37 36 35 34 34 33 32 31 31 31 31 31 30 30 30 30 30 30 31 32 32 32 33 33 33 33 33 34 34 34 34 34 34 33 33
50 49 47 46 45 44 42 40 39 37 36 35 35 34 34 34 34 33 33 32 32 32 32 32 32 33 33 34 34 34 35 35 35 35 36 36 36 36 36 36 35 34 34
52 51 49 48 48 46 44 41 40 39 38 37 36 36 36 36 35 35 34 34 33 34 34 35 35 36 36 36 37 37 37 37 38 37 37 38 38 38 38 37 36 36 36
55 54 52 50 49 47 45 44 43 42 41 40 39 38 38 38 38 37 36 36 36 36 37 37 38 38 39 39 39 39 40 39 40 40 40 40 41 40 39 38 38 38 37
56 55 54 52 50 49 46 45 45 44 42 42 42 41 40 40 40 39 38 38 38 38 39 40 41 42 42 42 42 42 42 42 43 43 43 43 43 42 41 41 40 40 39
56 55 54 54 52 51 49 47 47 45 44 43 43 43 42 42 42 41 41 40 41 41 41 42 43 44 44 44 44 45 45 45 45 45 46 45 45 44 43 43 42 41 40
56 55 53 53 54 53 51 49 49 47 46 45 45 44 44 44 42 42 42 43 43 43 44 44 44 45 45 46 46 47 47 48 47 47 47 47 46 46 45 44 44 43 42
55 55 55 54 53 53 53 51 50 48 47 46 46 45 46 46 45 44 44 44 45 45 45 45 45 46 46 47 47 48 48 48 48 48 48 47 46 46 46 46 45 44 44
55 55 55 53 52 53 53 51 51 51 49 47 48 47 48 48 47 48 46 46 47 47 47 47 47 48 49 49 49 50 50 50 50 49 49 48 48 47 47 46 46 45 45
53 53 54 53 52 53 54 53 52 52 51 49 49 48 49 49 49 49 49 48 48 47 48 49 49 50 51 52 52 52 52 51 51 50 50 49 49 49 47 46 46 47 46
50 50 51 52 53 53 55 55 54 53 52 52 52 51 51 51 51 49 49 49 49 49 49 50 51 52 53 53 54 53 52 53 53 52 52 51 51 50 48 47 47 47 47
46 47 49 51 52 53 54 55 56 54 54 54 53 52 53 52 52 51 51 51 51 51 51 51 51 52 53 54 54 54 54 54 54 55 54 53 53 52 51 49 48 47 47
42 44 45 47 50 52 53 54 54 54 54 54 54 54 54 53 53 53 54 54 54 53 52 51 51 52 53 53 54 55 55 55 55 55 55 54 53 52 51 50 49 49 48
39 41 43 44 47 50 51 53 53 53 53 54 55 55 54 54 55 54 54 54 54 54 53 51 52 53 54 54 55 55 55 55 54 54 54 53 51 51 51 50 49 48 48
37 39 41 43 44 47 49 50 52 53 53 53 53 53 54 55 55 55 55 54 54 55 54 52 53 53 54 55 55 55 56 55 54 53 52 51 50 49 49 49 49 48 47
33 36 39 40 41 43 45 47 50 51 52 52 52 53 53 53 54 54 54 53 53 54 54 53 53 53 53 54 53 53 53 53 52 51 50 49 48 49 48 48 48 47 47
30 33 37 39 41 42 44 46 47 49 50 50 51 51 51 52 53 53 53 52 52 53 53 54 54 53 53 53 53 53 52 51 50 50 50 49 49 49 49 48 47 46 46
28 31 34 37 39 41 42 44 45 47 49 49 49 49 50 52 53 52 52 52 52 53 54 55 54 54 53 53 53 53 52 52 51 50 50 49 50 50 49 47 45 45 44
27 29 31 33 35 38 40 43 44 46 48 49 49 50 51 52 52 51 51 51 52 54 55 54 54 54 53 53 53 54 54 53 52 52 51 50 49 48 47 46 44 43 43
25 27 28 31 34 36 39 42 44 45 47 48 49 50 51 52 51 51 51 52 52 53 52 52 52 53 53 53 53 53 53 53 52 51 51 49 48 47 46 45 43 42 40
25 27 29 31 33 35 38 41 43 45 46 47 47 49 51 50 51 53 54 53 53 53 53 53 53 53 53 53 54 53 52 52 51 49 49 47 47 46 45 43 43 42 40
25 26 28 30 32 34 37 39 41 42 43 45 46 47 49 49 51 52 53 54 54 54 54 55 54 53 53 53 53 52 51 51 50 49 48 48 47 46 45 43 42 42 40
26 27 28 30 31 33 36 38 39 40 41 42 43 44 46 47 48 50 51 52 52 52 52 52 52 52 52 51 51 50 50 50 50 49 48 48 47 46 44 42 41 40 38
26 28 28 30 33 34 35 36 37 38 39 40 42 42 44 45 46 47 48 49 50 50 50 51 51 50 49 49 49 49 49 49 49 48 47 45 44 43 41 40 39 38 37
Wind_Direction
245 244 243 244 244 246 247 248 248 250 252 253 254 256 258 260 261 263 264 266 267 267 269 271 273 276 279 281 283 285 287 288 289 291 293 295 296 298 299 300 301 302 303
243 244 245 244 244 245 246 248 248 248 251 253 254 256 257 259 261 263 265 266 267 267 269 271 274 277 278 280 282 282 284 287 288 290 291 294 296 297 298 298 300 301 301
242 243 244 243 244 245 246 247 249 250 251 253 255 256 258 259 261 263 264 265 266 267 268 271 273 276 279 280 281 281 283 285 287 289 291 294 295 296 296 297 298 298 299
241 241 243 243 243 244 245 246 248 250 252 253 254 255 257 258 260 262 263 264 265 267 269 270 272 275 277 280 280 281 282 283 285 287 289 292 293 294 295 295 297 297 297
240 241 241 242 242 242 243 245 248 249 250 253 255 256 257 258 260 262 262 263 264 267 269 271 273 274 276 278 280 280 282 282 283 285 287 289 291 292 293 293 295 295 295
239 241 241 241 241 241 242 243 247 248 249 252 254 255 257 258 260 262 263 264 267 269 271 272 273 274 276 278 279 279 281 282 283 284 285 287 289 290 290 291 292 293 294
239 240 240 240 240 239 240 241 245 248 249 251 254 256 257 259 260 262 264 266 268 271 272 274 274 275 276 277 278 279 280 281 282 284 284 286 287 288 289 290 291 291 292
238 239 240 239 238 239 240 241 243 246 249 251 254 255 257 259 261 263 264 267 269 271 272 274 275 276 276 276 276 277 279 281 282 283 283 283 284 286 286 288 289 289 289
238 239 239 239 238 239 240 242 243 246 249 251 253 255 258 260 263 264 265 267 269 272 273 274 275 276 276 276 276 277 278 280 281 282 282 282 283 283 284 285 286 288 287
239 240 240 239 238 238 239 241 243 246 249 251 253 257 260 262 264 265 265 267 269 270 272 273 274 275 275 275 275 276 278 279 280 280 280 281 281 282 283 283 284 285 287
239 240 240 239 239 239 239 240 242 245 248 251 255 257 260 263 265 266 267 268 269 270 272 272 273 273 274 274 274 275 276 277 278 278 278 280 281 282 282 282 282 283 285
237 238 238 239 240 240 240 240 243 245 247 251 253 257 262 263 265 267 268 269 269 270 271 271 272 272 274 274 275 274 274 276 276 276 278 278 280 281 281 282 282 283 283
237 238 238 239 241 242 242 242 244 245 249 251 254 259 263 265 265 267 269 269 270 271 272 272 272 274 275 275 275 274 275 275 275 276 277 277 278 279 279 280 280 282 282
238 239 239 240 241 242 243 244 245 246 250 252 256 259 264 266 266 267 269 270 271 272 272 272 273 274 274 275 275 276 276 276 276 277 277 277 277 278 277 277 278 279 280
240 240 241 242 243 243 243 245 246 249 251 253 256 260 263 264 266 266 268 270 272 273 273 273 273 273 274 275 276 277 277 276 276 276 277 277 277 276 276 276 277 278 280
241 241 243 245 247 247 249 250 250 251 252 255 258 260 263 264 266 266 267 269 271 273 274 274 273 274 275 276 277 278 278 277 276 277 277 277 276 275 276 276 276 277 278
242 244 246 248 249 250 252 252 253 253 255 257 259 261 263 264 265 266 267 268 269 272 274 274 274 274 276 277 277 278 279 278 278 277 277 276 276 276 275 275 275 275 276
248 247 249 251 252 253 255 255 254 255 256 259 261 262 262 264 265 267 268 268 270 271 273 274 274 274 274 276 277 278 279 278 278 278 277 277 276 276 276 276 274 274 274
255 253 254 255 256 256 257 257 257 257 259 261 262 263 264 264 265 267 268 268 269 271 273 274 274 273 274 274 276 277 276 277 277 277 276 276 275 276 276 275 274 273 273
259 259 258 258 257 258 259 260 260 261 262 263 264 265 265 265 266 267 268 269 269 271 272 273 274 274 274 274 275 275 275 275 276 276 275 275 276 276 276 275 273 273 272
264 263 261 260 260 260 261 262 263 263 264 264 265 265 266 266 267 268 268 269 269 270 272 273 273 273 274 275 275 275 274 274 274 274 275 275 275 275 274 274 272 272 272
269 268 266 266 266 266 265 265 265 266 265 265 266 266 267 268 267 267 268 267 269 270 271 273 273 275 275 276 277 275 274 273 273 274 274 274 274 274 273 273 271 271 270
276 273 271 271 271 272 271 270 269 268 267 267 266 266 266 268 268 268 268 267 268 269 271 273 275 277 277 277 276 275 274 274 273 273 273 272 272 273 271 272 271 269 269
283 281 279 277 277 276 275 275 274 272 270 269 269 269 268 268 268 268 267 267 268 269 270 272 275 276 277 276 275 274 273 273 271 271 272 272 272 272 271 269 269 268 267
288 287 285 284 283 282 280 279 279 277 273 271 271 271 271 270 271 270 269 270 270 271 273 274 274 275 276 274 274 272 272 271 271 270 271 273 272 270 268 267 267 266 266
295 292 291 289 288 289 288 286 283 281 278 274 273 273 274 274 274 273 272 271 271 272 273 273 272 273 274 272 272 272 271 271 271 270 270 271 270 268 266 266 265 263 263
Height
5813 5816 5819 5821 5824 5826 5828 5830 5831 5833 5834 5835 5836 5837 5838 5838 5839 5839 5839 5839 5839 5839 5838 5838 5837 5837 5836 5835 5834 5833 5831 5830 5829 5827 5825 5824 5822 5820 5818 5816 5813 5811 5809
5804 5808 5811 5814 5816 5819 5821 5823 5824 5826 5827 5828 5830 5831 5832 5832 5833 5833 5833 5833 5833 5833 5833 5832 5832 5831 5830 5829 5828 5827 5825 5824 5823 5821 5819 5817 5816 5814 5811 5809 5807 5805 5803
5795 5799 5802 5805 5809 5811 5813 5815 5817 5819 5820 5822 5823 5824 5825 5826 5826 5826 5826 5827 5827 5826 5826 5826 5825 5825 5824 5823 5822 5821 5819 5818 5816 5815 5813 5811 5809 5807 5805 5803 5801 5798 5796
5785 5789 5793 5797 5800 5803 5805 5808 5810 5812 5814 5815 5816 5817 5818 5819 5819 5819 5820 5820 5820 5820 5819 5819 5819 5818 5817 5816 5815 5814 5812 5811 5809 5808 5806 5804 5802 5800 5798 5796 5794 5792 5789
5775 5779 5783 5787 5790 5794 5797 5799 5802 5804 5806 5807 5808 5810 5810 5811 5811 5812 5812 5812 5813 5812 5812 5812 5811 5810 5809 5808 5807 5806 5804 5803 5802 5800 5799 5797 5795 5792 5790 5788 5786 5784 5782
5764 5768 5773 5777 5781 5784 5788 5791 5793 5795 5797 5799 5800 5801 5802 5803 5804 5804 5805 5805 5805 5805 5804 5803 5803 5802 5801 5800 5799 5797 5796 5795 5793 5792 5790 5789 5787 5784 5782 5780 5778 5776 5774
5752 5757 5762 5766 5770 5774 5778 5782 5784 5786 5788 5790 5792 5793 5794 5795 5795 5796 5797 5797 5797 5796 5796 5795 5794 5793 5792 5791 5789 5788 5787 5785 5784 5783 5781 5779 5778 5776 5774 5772 5770 5768 5766
5741 5746 5751 5755 5760 5764 5768 5772 5775 5777 5779 5781 5783 5783 5785 5786 5787 5788 5788 5789 5788 5787 5787 5785 5784 5783 5781 5780 5779 5778 5776 5775 5774 5772 5771 5769 5768 5766 5764 5763 5761 5759 5757
5729 5734 5739 5744 5748 5753 5758 5762 5765 5767 5770 5772 5773 5774 5775 5777 5778 5779 5779 5779 5778 5777 5776 5775 5774 5772 5770 5769 5768 5767 5765 5764 5762 5761 5760 5758 5757 5755 5754 5752 5751 5749 5747
5717 5722 5727 5732 5737 5742 5746 5751 5754 5757 5759 5761 5763 5764 5766 5767 5768 5769 5769 5768 5767 5766 5765 5764 5762 5760 5759 5757 5756 5755 5753 5752 5750 5749 5747 5746 5745 5744 5743 5741 5740 5738 5737
5704 5710 5715 5720 5725 5730 5735 5739 5742 5746 5748 5751 5752 5754 5755 5756 5756 5756 5757 5758 5756 5755 5754 5752 5750 5749 5747 5745 5744 5743 5741 5739 5738 5736 5735 5734 5733 5732 5731 5730 5728 5727 5725
5692 5697 5702 5707 5712 5717 5722 5727 5730 5734 5737 5739 5741 5742 5743 5744 5744 5744 5744 5745 5744 5744 5742 5740 5737 5736 5734 5732 5731 5730 5728 5726 5725 5724 5722 5722 5721 5719 5719 5717 5716 5714 5713
5681 5685 5690 5695 5701 5705 5710 5715 5719 5722 5725 5727 5729 5730 5731 5732 5731 5731 5730 5730 5730 5731 5729 5727 5725 5722 5720 5719 5717 5716 5714 5712 5711 5710 5709 5708 5707 5706 5706 5704 5703 5702 5700
5671 5676 5680 5684 5689 5694 5698 5703 5707 5710 5713 5715 5716 5717 5718 5719 5718 5718 5717 5716 5716 5717 5716 5714 5712 5709 5707 5705 5703 5701 5700 5699 5698 5696 5695 5693 5692 5692 5691 5691 5690 5688 5687
5663 5666 5671 5675 5679 5683 5686 5691 5694 5697 5700 5702 5704 5705 5705 5706 5705 5705 5704 5702 5701 5700 5702 5701 5698 5696 5693 5691 5689 5687 5685 5684 5683 5681 5679 5677 5676 5676 5676 5676 5675 5674 5673
5655 5658 5662 5666 5670 5673 5676 5679 5682 5684 5687 5689 5691 5691 5692 5692 5692 5691 5690 5689 5687 5685 5685 5686 5684 5683 5679 5677 5675 5672 5670 5669 5667 5665 5663 5662 5661 5660 5660 5661 5661 5660 5660
5647 5651 5654 5657 5659 5662 5664 5666 5669 5672 5674 5676 5677 5678 5679 5679 5678 5677 5676 5675 5673 5671 5671 5672 5670 5668 5666 5663 5661 5658 5656 5654 5652 5651 5649 5647 5646 5645 5646 5646 5647 5647 5647
5640 5643 5645 5647 5649 5651 5653 5654 5657 5660 5661 5663 5664 5664 5665 5664 5664 5663 5662 5661 5659 5658 5656 5656 5656 5654 5652 5649 5646 5644 5642 5640 5639 5637 5635 5633 5632 5632 5632 5632 5633 5633 5633
5633 5634 5636 5637 5639 5640 5642 5643 5645 5647 5648 5649 5650 5650 5650 5650 5650 5649 5648 5646 5645 5644 5642 5642 5641 5640 5638 5635 5632 5631 5628 5626 5624 5623 5621 5620 5619 5618 5618 5618 5618 5619 5620
5625 5626 5627 5628 5629 5630 5631 5632 5633 5634 5635 5635 5635 5635 5635 5635 5635 5634 5633 5632 5631 5630 5628 5627 5626 5625 5623 5620 5617 5616 5614 5612 5610 5609 5607 5606 5605 5605 5604 5604 5605 5605 5606
5617 5617 5618 5618 5619 5619 5620 5621 5622 5622 5622 5621 5621 5621 5621 5620 5619 5619 5618 5618 5616 5615 5614 5612 5610 5609 5608 5605 5603 5601 5598 5597 5596 5594 5593 5593 5592 5591 5590 5591 5591 5592 5593
5609 5609 5608 5608 5609 5608 5609 5609 5609 5609 5608 5608 5607 5606 5606 5605 5604 5604 5603 5602 5601 5600 5599 5597 5595 5594 5592 5590 5587 5584 5582 5581 5581 5582 5578 5578 5577 5577 5577 5578 5578 5579 5581
5601 5600 5600 5600 5599 5598 5598 5597 5596 5595 5595 5594 5593 5592 5591 5590 5589 5588 5588 5587 5586 5584 5583 5581 5580 5578 5577 5575 5572 5570 5568 5566 5566 5565 5563 5563 5563 5563 5564 5565 5566 5567 5569
5594 5592 5591 5590 5589 5588 5587 5585 5584 5582 5580 5579 5578 5576 5575 5574 5573 5572 5571 5571 5569 5569 5568 5566 5565 5563 5561 5558 5556 5555 5553 5552 5551 5551 5550 5550 5550 5550 5551 5552 5553 5555 5557
5586 5584 5582 5581 5579 5578 5576 5573 5571 5569 5567 5565 5563 5561 5560 5558 5558 5556 5555 5555 5554 5553 5551 5549 5548 5547 5545 5543 5541 5540 5539 5538 5537 5538 5537 5537 5537 5537 5538 5540 5541 5543 5545
5579 5576 5574 5572 5570 5567 5564 5562 5559 5556 5554 5553 5550 5548 5545 5543 5541 5539 5538 5538 5537 5537 5536 5535 5534 5532 5530 5529 5527 5525 5525 5524 5523 5525 5525 5525 5524 5525 5526 5528 5530 5532 5534